TimeEST,TemperatureF,Dew PointF,Humidity,Sea Level PressureIn,VisibilityMPH,Wind Direction,Wind SpeedMPH,Gust SpeedMPH,PrecipitationIn,Events,Conditions,WindDirDegrees,DateUTC
12:05 AM,42.8,41.0,93,30.11,1.0,Calm,Calm,-,N/A,,Mist,0,2012-12-03 05:05:00
12:33 AM,42.8,41.0,93,30.10,2.5,East,4.6,-,N/A,,Mostly Cloudy,100,2012-12-03 05:33:00
12:46 AM,42.8,41.0,93,30.10,0.8,Calm,Calm,-,N/A,,Mostly Cloudy,0,2012-12-03 05:46:00
12:56 AM,41.0,39.9,96,30.11,0.2,SE,3.5,-,N/A,Fog,Fog,130,2012-12-03 05:56:00
1:10 AM,41.0,39.2,93,30.09,0.2,SSE,3.5,-,N/A,Fog,Fog,150,2012-12-03 06:10:00
1:56 AM,39.0,37.9,96,30.12,0.2,Calm,Calm,-,N/A,Fog,Fog,0,2012-12-03 06:56:00
2:16 AM,37.4,37.4,100,30.10,0.2,Calm,Calm,-,N/A,Fog,Fog,0,2012-12-03 07:16:00
2:37 AM,39.2,39.2,100,30.10,0.5,Calm,Calm,-,N/A,Fog,Fog,0,2012-12-03 07:37:00
2:56 AM,42.1,41.0,96,30.12,0.8,South,5.8,-,N/A,,Overcast,180,2012-12-03 07:56:00
3:06 AM,44.6,44.6,100,30.12,1.0,Calm,Calm,-,N/A,,Overcast,0,2012-12-03 08:06:00
3:08 AM,42.8,42.8,100,30.12,0.8,Calm,Calm,-,N/A,,Overcast,0,2012-12-03 08:08:00
3:39 AM,46.4,46.4,100,30.11,1.8,East,4.6,-,N/A,,Overcast,90,2012-12-03 08:39:00
3:54 AM,46.4,44.6,93,30.10,3.0,SSE,5.8,-,N/A,,Overcast,150,2012-12-03 08:54:00
3:56 AM,46.9,45.0,93,30.11,3.0,SSE,6.9,-,N/A,,Overcast,150,2012-12-03 08:56:00
4:09 AM,46.4,44.6,93,30.10,3.0,SE,5.8,-,N/A,,Overcast,140,2012-12-03 09:09:00
4:22 AM,46.4,44.6,93,30.10,4.0,SE,4.6,-,N/A,,Overcast,140,2012-12-03 09:22:00
4:56 AM,45.0,44.1,97,30.11,4.0,SE,3.5,-,N/A,,Mostly Cloudy,130,2012-12-03 09:56:00
5:03 AM,46.4,44.6,93,30.10,4.0,Calm,Calm,-,N/A,,Mostly Cloudy,0,2012-12-03 10:03:00
5:40 AM,46.4,46.4,100,30.11,4.0,Calm,Calm,-,N/A,,Overcast,0,2012-12-03 10:40:00
5:56 AM,48.0,46.0,93,30.12,4.0,SSE,4.6,-,N/A,,Overcast,150,2012-12-03 10:56:00
6:40 AM,48.2,46.4,93,30.09,0.5,SE,8.1,-,N/A,Fog,Fog,140,2012-12-03 11:40:00
6:56 AM,48.0,48.0,100,30.11,0.2,SE,8.1,-,N/A,Fog,Fog,140,2012-12-03 11:56:00
7:56 AM,48.9,48.0,97,30.11,0.2,SE,5.8,-,N/A,Fog,Fog,130,2012-12-03 12:56:00
8:05 AM,48.2,48.2,100,30.09,0.2,SE,3.5,-,N/A,Fog,Fog,130,2012-12-03 13:05:00
8:52 AM,50.0,48.2,94,30.09,0.2,SE,5.8,-,N/A,Fog,Fog,140,2012-12-03 13:52:00
9:56 AM,52.0,51.1,97,30.10,0.2,SSE,8.1,-,0.01,Fog,Fog,150,2012-12-03 14:56:00
10:10 AM,53.6,51.8,94,30.08,0.5,SSE,8.1,-,N/A,Fog,Fog,150,2012-12-03 15:10:00
10:23 AM,53.6,53.6,100,30.08,1.2,SSE,6.9,-,N/A,,Overcast,150,2012-12-03 15:23:00
10:52 AM,55.4,53.6,94,30.07,2.0,SSE,9.2,-,N/A,,Overcast,150,2012-12-03 15:52:00
10:56 AM,55.0,54.0,96,30.09,2.0,SSE,6.9,-,N/A,,Overcast,160,2012-12-03 15:56:00
11:56 AM,55.9,55.0,97,30.05,2.5,South,10.4,-,N/A,,Overcast,170,2012-12-03 16:56:00
12:53 PM,57.2,55.4,94,30.00,3.0,SSE,10.4,-,N/A,,Overcast,160,2012-12-03 17:53:00
12:56 PM,57.0,55.0,93,30.02,3.0,SSE,11.5,-,N/A,,Overcast,160,2012-12-03 17:56:00
1:25 PM,57.2,55.4,94,29.99,2.5,SSE,11.5,-,N/A,,Overcast,160,2012-12-03 18:25:00
1:52 PM,57.2,55.4,94,29.99,1.8,South,11.5,-,N/A,,Overcast,170,2012-12-03 18:52:00
1:56 PM,57.9,55.9,93,30.00,2.0,South,6.9,-,N/A,,Overcast,170,2012-12-03 18:56:00
2:14 PM,57.2,55.4,94,29.99,3.0,South,10.4,-,N/A,,Overcast,180,2012-12-03 19:14:00
2:37 PM,57.2,57.2,100,29.98,2.5,SSE,9.2,-,N/A,,Overcast,160,2012-12-03 19:37:00
2:56 PM,59.0,57.0,93,29.98,2.5,SSE,8.1,-,N/A,,Overcast,160,2012-12-03 19:56:00
3:46 PM,59.0,57.2,94,29.96,1.5,SSE,9.2,-,N/A,,Overcast,160,2012-12-03 20:46:00
3:56 PM,59.0,57.0,93,29.97,1.5,SSE,10.4,-,N/A,,Overcast,160,2012-12-03 20:56:00
4:09 PM,60.8,57.2,88,29.96,2.0,South,8.1,-,N/A,,Overcast,170,2012-12-03 21:09:00
4:21 PM,60.8,57.2,88,29.96,3.0,South,8.1,-,N/A,,Overcast,180,2012-12-03 21:21:00
4:30 PM,60.8,57.2,88,29.96,3.0,South,10.4,-,N/A,,Overcast,170,2012-12-03 21:30:00
4:56 PM,61.0,57.9,90,29.96,3.0,South,10.4,-,N/A,,Overcast,170,2012-12-03 21:56:00
5:56 PM,62.1,57.9,86,29.96,6.0,SSW,10.4,-,N/A,,Overcast,200,2012-12-03 22:56:00
6:36 PM,60.8,57.2,88,29.94,7.0,South,16.1,25.3,N/A,,Mostly Cloudy,180,2012-12-03 23:36:00
6:56 PM,61.0,57.0,87,29.94,7.0,South,16.1,21.9,N/A,,Mostly Cloudy,180,2012-12-03 23:56:00
7:04 PM,60.8,57.2,88,29.94,7.0,South,12.7,21.9,N/A,,Scattered Clouds,180,2012-12-04 00:04:00
7:56 PM,61.0,57.0,87,29.94,8.0,South,15.0,25.3,N/A,,Partly Cloudy,190,2012-12-04 00:56:00
8:56 PM,62.1,55.9,80,29.92,10.0,South,17.3,26.5,N/A,,Scattered Clouds,190,2012-12-04 01:56:00
9:56 PM,62.1,55.0,78,29.91,10.0,SSW,15.0,21.9,N/A,,Clear,200,2012-12-04 02:56:00
10:56 PM,62.1,54.0,75,29.90,10.0,SSW,19.6,31.1,N/A,,Partly Cloudy,210,2012-12-04 03:56:00
11:56 PM,63.0,54.0,72,29.91,10.0,SSW,19.6,28.8,N/A,,Overcast,210,2012-12-04 04:56:00